Location: DARK SKY Beskydy - Park tmavé oblohy, www.darkskybeskydy.cz
(49.4926°N, 18.5016°E)
Time: 12:16:58
(UTC+02:00)

Vanguard 1 - Pass Details

Date: 23 February 2024
Orbit: 653 x 3825 km, 34.2° (Epoch: 12 April)

Event Time Altitude Azimuth Distance (km) Brightness Sun altitude
Rises 22:07:26 0° 254° (WSW) 6,344 14.4 -44.0°
Reaches altitude 10° 22:11:13 10° 249° (WSW) 5,677 14.0 -44.4°
Enters shadow 22:24:15 46° 212° (SSW) 4,281 12.9 -45.6°
Maximum altitude 22:29:16 52° 181° (S) 4,263 - -46.1°
Drops below altitude 10° 22:51:03 10° 114° (ESE) 6,707 - -47.8°
Sets 22:56:01 0° 110° (ESE) 7,511 - -48.1°
